"September 12 to September 18, 1992",,,,,,,,,,,,,,,
NOAA Ship Discoverer,,,,,,,,,,,,,,,
Group,JD_GMT,Date,Time,Latitude,Longitude,xCO2w_ppm,xCO2a_ppm,Pres_Equil_mB,Pres_sealevel_mB,EqTemp_C,SST(TSG)_C,Sal(TSG)_permil,fCO2w@SST_uatm,fCO2a_uatm,dfCO2_uatm
PMEL,255,11091992,0:00:00,7.928,-140,357.04,356.08,1008.8,1008.8,28.874,28.38,34.097,334.4,340.15,-5.75
PMEL,255.04,11091992,0:57:36,7.708,-140,356.94,355.31,1008.5,1008.5,28.9,28.403,34.15,334.15,339.29,-5.15
PMEL,255.08,11091992,1:55:12,7.463,-140,356.79,355.29,1008.5,1008.5,28.92,28.426,34.152,334.03,339.26,-5.23
PMEL,255.12,11091992,2:52:48,7.228,-140,356.18,355.63,1008.8,1008.8,28.848,28.407,34.145,334.28,339.7,-5.42
PMEL,255.17,11091992,4:04:48,6.972,-140,355.05,355.67,1009.2,1009.2,28.639,28.296,34.166,334.74,339.96,-5.22
PMEL,255.21,11091992,5:02:24,6.728,-140,361.5,355.63,1009.9,1009.9,28.438,28.181,34.291,342.33,340.26,2.08
PMEL,255.25,11091992,6:00:00,6.489,-140,366.58,355.67,1010.6,1010.6,28.298,27.909,34.457,345.77,340.74,5.03
PMEL,255.29,11091992,6:57:36,6.253,-140,365.74,355.77,1011,1011,28.114,27.731,34.44,345.33,341.11,4.22
PMEL,255.33,11091992,7:55:12,6.044,-140,368.12,355.83,1010.9,1010.9,27.988,27.597,34.436,347.53,341.23,6.3
PMEL,255.37,11091992,8:52:48,6.005,-140,367.7,355.78,1010.4,1010.4,27.975,27.555,34.442,346.58,341.04,5.55
PMEL,255.41,11091992,9:50:24,6.004,-140,369.03,356.18,1009.6,1009.6,27.966,27.532,34.442,347.38,341.16,6.22
PMEL,255.46,11091992,11:02:24,5.973,-140,371.07,356.54,1008.6,1008.6,27.867,27.474,34.445,349.55,341.2,8.36
PMEL,255.5,11091992,12:00:00,5.783,-140,372.78,356.57,1008.1,1008.1,27.733,27.353,34.442,351.25,341.14,10.12
PMEL,255.54,11091992,12:57:36,5.533,-140,373.7,356.49,1008.1,1008.1,27.713,27.289,34.449,351.55,341.11,10.44
PMEL,255.58,11091992,13:55:12,5.286,-140.01,379.09,356.45,1008.1,1008.1,27.381,27.092,34.458,358.7,341.21,17.49
PMEL,255.62,11091992,14:52:48,5.059,-140.05,396.76,356.52,1008.7,1008.7,26.876,26.505,34.466,374.87,341.9,32.97
PMEL,255.67,11091992,16:04:48,5.008,-140.06,394.03,356.36,1009.2,1009.2,26.966,26.438,34.47,370.19,341.96,28.23
PMEL,255.71,11091992,17:02:24,5,-140.05,391.05,356.58,1010.3,1010.3,27.049,26.548,34.475,368.12,342.48,25.64
PMEL,255.75,11091992,18:00:00,4.993,-140.04,381.68,356.46,1011.3,1011.3,27.378,26.731,34.47,357.44,342.59,14.85
PMEL,255.79,11091992,18:57:36,4.993,-140.02,381.98,356.54,1011.8,1011.8,27.481,26.955,34.467,359.48,342.69,16.8
PMEL,255.87,11091992,20:52:48,4.977,-140.04,380.45,356.53,1011.9,1011.9,27.693,27.167,34.464,357.93,342.56,15.37
PMEL,255.92,11091992,22:04:48,4.966,-140.05,382.21,356.52,1011.4,1011.4,27.702,27.224,34.464,360.05,342.34,17.71
PMEL,255.96,11091992,23:02:24,4.955,-140.06,383.21,356.52,1010.4,1010.4,27.788,27.251,34.464,359.76,341.96,17.79
PMEL,256,12091992,0:00:00,4.946,-140.06,382.23,356.51,1009.5,1009.5,27.934,27.366,34.463,357.98,341.56,16.42
PMEL,256.04,12091992,0:57:36,4.967,-140.04,374.99,356.5,1009,1009,28.169,27.517,34.443,349.73,341.27,8.46
PMEL,256.08,12091992,1:55:12,5.037,-139.93,365.77,356.6,1008.9,1008.9,28.364,27.868,34.398,342.97,341.07,1.9
PMEL,256.13,12091992,3:07:12,5.052,-139.92,365.29,356.6,1009.8,1009.8,28.314,27.897,34.388,343.89,341.36,2.53
PMEL,256.17,12091992,4:04:48,5.047,-139.94,365.53,356.61,1010.7,1010.7,28.232,27.828,34.392,344.67,341.73,2.93
PMEL,256.21,12091992,5:02:24,5.04,-139.96,365.4,356.61,1011.5,1011.5,28.186,27.768,34.395,344.68,342.06,2.62
PMEL,256.25,12091992,6:00:00,5.032,-139.99,368.4,356.61,1012.1,1012.1,28.122,27.705,34.404,347.78,342.32,5.46
PMEL,256.29,12091992,6:57:36,5.014,-140.02,368,356.49,1012.7,1012.7,28.046,27.685,34.416,348.41,342.42,5.99
PMEL,256.33,12091992,7:55:12,5.006,-140.05,367.5,356.36,1012.9,1012.9,28.063,27.617,34.418,346.88,342.42,4.46
PMEL,256.37,12091992,8:52:48,5,-140.04,366.62,356.56,1012.5,1012.5,28.055,27.626,34.412,346.13,342.47,3.67
PMEL,256.41,12091992,9:50:24,4.91,-140.03,367.71,356.48,1011.8,1011.8,28.016,27.596,34.414,347.06,342.17,4.89
PMEL,256.46,12091992,11:02:24,4.687,-140.01,372.54,356.49,1011.1,1011.1,27.741,27.47,34.42,353.56,342.03,11.54
PMEL,256.5,12091992,12:00:00,4.407,-140,381.42,356.46,1010.6,1010.6,27.481,27.165,34.454,361.39,342.04,19.34
PMEL,256.54,12091992,12:57:36,4.132,-140,382.85,356.44,1010.4,1010.4,27.305,26.943,34.466,362.16,342.11,20.05
PMEL,256.58,12091992,13:55:12,3.986,-140,382.48,356.38,1010.4,1010.4,27.329,26.87,34.467,360.46,342.1,18.36
PMEL,256.63,12091992,15:07:12,3.967,-140,384.21,356.43,1010.8,1010.8,27.303,26.869,34.471,362.61,342.29,20.32
PMEL,256.67,12091992,16:04:48,3.829,-140.01,386.22,356.44,1011.5,1011.5,27.127,26.778,34.461,366.07,342.61,23.47
PMEL,256.79,12091992,18:57:36,3.056,-140.1,384.99,356.64,1013.2,1013.2,27.179,26.603,34.445,362.36,343.52,18.84
PMEL,256.83,12091992,19:55:12,2.991,-140.12,384.7,356.37,1012.8,1012.8,27.262,26.728,34.45,362.46,343.03,19.43
PMEL,256.87,12091992,20:52:48,2.983,-140.12,385.99,356.66,1012.5,1012.5,27.363,26.838,34.452,363.62,343.13,20.49
PMEL,256.92,12091992,22:04:48,2.869,-140.2,384.63,356.53,1011.8,1011.8,27.412,26.869,34.447,361.8,342.74,19.06
PMEL,256.96,12091992,23:02:24,2.653,-140.34,385.4,356.54,1011.1,1011.1,27.417,26.907,34.445,362.71,342.48,20.24
PMEL,257,13091992,0:00:00,2.428,-140.49,384.46,356.59,1010.5,1010.5,27.478,26.966,34.445,361.53,342.27,19.26
PMEL,257.04,13091992,0:57:36,2.197,-140.65,385.88,356.62,1010,1010,27.375,26.943,34.437,363.86,342.14,21.72
PMEL,257.08,13091992,1:55:12,1.988,-140.79,387.19,356.6,1010,1010,27.351,26.879,34.446,364.56,342.17,22.39
PMEL,257.12,13091992,2:52:48,1.935,-140.88,386.64,356.73,1010.4,1010.4,27.316,26.858,34.448,364.41,342.45,21.96
PMEL,257.17,13091992,4:04:48,1.933,-140.75,383.39,356.68,1010.9,1010.9,27.289,26.845,34.44,361.74,342.58,19.16
PMEL,257.21,13091992,5:02:24,1.953,-140.54,380.56,356.71,1011.5,1011.5,27.42,26.913,34.448,358.34,342.77,15.56
PMEL,257.25,13091992,6:00:00,1.978,-140.32,377.51,356.48,1012.4,1012.4,27.521,27.043,34.475,356.11,342.78,13.34
PMEL,257.29,13091992,6:57:36,1.994,-140.09,376.62,356.64,1013.1,1013.1,27.615,27.122,34.488,355.26,343.12,12.14
PMEL,257.33,13091992,7:55:12,1.996,-140,375.69,356.49,1013.7,1013.7,27.6,27.155,34.503,355.25,343.16,12.09
PMEL,257.37,13091992,8:52:48,1.99,-140.01,376.89,356.71,1013.3,1013.3,27.584,27.157,34.508,356.5,343.23,13.27
PMEL,257.41,13091992,9:50:24,1.899,-140.01,378.4,356.59,1012.7,1012.7,27.552,27.117,34.505,357.62,342.93,14.69
PMEL,257.5,13091992,12:00:00,1.408,-140,383.42,356.68,1011.2,1011.2,27.409,27.053,34.545,363.01,342.54,20.46
PMEL,257.54,13091992,12:57:36,1.15,-139.99,386.8,356.7,1010.9,1010.9,27.201,26.864,34.541,366.51,342.59,23.92
PMEL,257.58,13091992,13:55:12,1.004,-140,389.36,356.49,1011.1,1011.1,27.114,26.681,34.519,367.74,342.59,25.15
PMEL,257.62,13091992,14:52:48,1.002,-140,389.52,356.74,1011.5,1011.5,27.094,26.656,34.522,367.98,342.98,25
PMEL,257.67,13091992,16:04:48,0.969,-139.99,388.68,356.96,1011.8,1011.8,27.101,26.644,34.521,367.03,343.31,23.72
PMEL,257.71,13091992,17:02:24,0.762,-139.99,390.09,356.81,1012.3,1012.3,26.788,26.471,34.472,370.75,343.46,27.29
PMEL,257.75,13091992,18:00:00,0.542,-140,385.16,356.84,1013,1013,26.91,26.395,34.446,363.48,343.78,19.69
PMEL,257.79,13091992,18:57:36,0.497,-140,385.85,356.84,1013.4,1013.4,26.948,26.448,34.469,364.46,343.89,20.57
PMEL,257.83,13091992,19:55:12,0.479,-140.01,384.84,356.85,1012.9,1012.9,26.978,26.483,34.475,363.37,343.7,19.67
PMEL,257.88,13091992,21:07:12,0.284,-140.01,398.29,356.85,1012.1,1012.1,26.349,26.132,34.495,380.24,343.66,36.58
PMEL,257.92,13091992,22:04:48,0.077,-140.03,405.18,356.85,1011.3,1011.3,26.3,25.713,34.545,381.12,343.66,37.46
PMEL,257.96,13091992,23:02:24,0.047,-140.03,406.69,356.62,1010.3,1010.3,26.352,25.788,34.559,382.45,343.04,39.41
PMEL,258,14091992,0:00:00,0.051,-140.01,406.69,357.05,1009.4,1009.4,26.359,25.826,34.566,382.54,343.11,39.43
PMEL,258.04,14091992,0:57:36,0.045,-139.99,412.13,357.03,1008.9,1008.9,26.418,25.869,34.587,387.19,342.89,44.3
PMEL,258.08,14091992,1:55:12,0.047,-140,411.17,357,1008.8,1008.8,26.38,25.904,34.589,387.35,342.8,44.55
PMEL,258.12,14091992,2:52:48,0.055,-139.99,409.33,356.98,1009.2,1009.2,26.291,25.844,34.587,386.26,342.96,43.3
PMEL,258.17,14091992,4:04:48,0.063,-139.98,408.75,356.96,1009.8,1009.8,26.231,25.789,34.587,386.07,343.19,42.88
PMEL,258.21,14091992,5:02:24,0.066,-140,406.66,356.93,1010.6,1010.6,26.212,25.748,34.578,384.1,343.47,40.63
PMEL,258.25,14091992,6:00:00,0.009,-140.01,408.14,356.91,1011.2,1011.2,26.061,25.624,34.627,386.24,343.74,42.5
PMEL,258.29,14091992,6:57:36,0.002,-140,407.98,357.09,1011.9,1011.9,26.014,25.583,34.636,386.49,344.19,42.3
PMEL,258.33,14091992,7:55:12,0.006,-139.99,407.08,357.02,1012.2,1012.2,25.988,25.553,34.639,385.71,344.24,41.47
PMEL,258.37,14091992,8:52:48,0.09,-140,402.73,356.99,1011.6,1011.6,26.048,25.617,34.579,381.37,343.96,37.41
PMEL,258.41,14091992,9:50:24,0.246,-140,402.52,357,1011.4,1011.4,26.207,25.765,34.507,380.82,343.8,37.02
PMEL,258.46,14091992,11:02:24,0.25,-140,405.48,356.94,1010.7,1010.7,26.171,25.764,34.525,383.89,343.5,40.38
PMEL,258.5,14091992,12:00:00,0.201,-140,403.25,356.92,1010.1,1010.1,26.071,25.635,34.553,381.19,343.36,37.83
PMEL,258.54,14091992,12:57:36,0.006,-140,425.93,356.99,1009.7,1009.7,25.768,25.486,34.792,405.08,343.38,61.7
PMEL,258.58,14091992,13:55:12,-0.208,-140,429.58,357,1009.7,1009.7,25.654,25.261,34.998,406.91,343.54,63.37
PMEL,258.63,14091992,15:07:12,-0.25,-139.99,430.24,356.96,1009.9,1009.9,25.659,25.24,35.002,407.21,343.59,63.63
PMEL,258.67,14091992,16:04:48,-0.197,-139.98,429.07,356.94,1010.2,1010.2,25.669,25.238,34.996,406.04,343.67,62.36
PMEL,258.71,14091992,17:02:24,-0.011,-139.99,426.82,357.4,1011.2,1011.2,25.773,25.33,34.998,404.06,344.41,59.65
PMEL,258.75,14091992,18:00:00,0.016,-140.01,425.9,357.08,1012.1,1012.1,25.791,25.364,35.01,403.79,344.39,59.4
PMEL,258.79,14091992,18:57:36,0.002,-139.93,428.37,356.75,1012.4,1012.4,25.761,25.322,35.006,406.09,344.21,61.88
PMEL,258.83,14091992,19:55:12,-0.007,-139.89,429.27,356.83,1012.2,1012.2,25.83,25.357,35.011,406.28,344.19,62.1
PMEL,258.87,14091992,20:52:48,0.008,-139.91,430.26,356.9,1011.5,1011.5,25.905,25.437,35.012,406.95,343.96,62.99
PMEL,258.96,14091992,23:02:24,0.022,-139.96,432.82,356.98,1009.3,1009.3,26.077,25.566,35.012,407.66,343.18,64.48
PMEL,259,15091992,0:00:00,0.034,-139.97,432.15,356.91,1008.6,1008.6,26.103,25.551,35.014,406.08,342.88,63.2
PMEL,259.04,15091992,0:57:36,0.039,-139.98,435.43,356.84,1008.1,1008.1,26.087,25.64,35.015,410.61,342.58,68.03
PMEL,259.08,15091992,1:55:12,0.027,-140.01,435.04,356.82,1007.8,1007.8,26.036,25.644,35.013,411.02,342.45,68.56
PMEL,259.12,15091992,2:52:48,0.04,-140.04,431.58,356.8,1007.8,1007.8,25.997,25.617,35.014,407.96,342.45,65.51
PMEL,259.17,15091992,4:04:48,0.037,-140.01,434.08,357,1008.3,1008.3,25.955,25.569,35.012,410.47,342.85,67.62
PMEL,259.21,15091992,5:02:24,0.004,-140,433.59,356.92,1009,1009,25.864,25.539,35.012,411.33,343.04,68.29
PMEL,259.25,15091992,6:00:00,-0.002,-140,433.68,356.86,1009.8,1009.8,25.814,25.503,35.005,412.01,343.28,68.73
PMEL,259.29,15091992,6:57:36,-0.177,-140,435.14,356.79,1010.3,1010.3,25.821,25.442,34.992,412.53,343.43,69.1
PMEL,259.33,15091992,7:55:12,-0.403,-140,435.48,356.91,1010.8,1010.8,25.809,25.477,34.995,413.82,343.7,70.12
PMEL,259.37,15091992,8:52:48,-0.496,-140,435.01,356.3,1010.5,1010.5,25.797,25.446,34.994,412.95,343.03,69.92
PMEL,259.41,15091992,9:50:24,-0.494,-139.99,434.47,355.69,1010.2,1010.2,25.76,25.44,34.994,412.83,342.34,70.49
PMEL,259.46,15091992,11:02:24,-0.524,-140,436.51,355.71,1009.6,1009.6,25.74,25.414,34.987,414.43,342.17,72.27
PMEL,259.5,15091992,12:00:00,-0.708,-140,433.78,355.8,1008.9,1008.9,25.822,25.465,34.978,411,341.98,69.02
PMEL,259.54,15091992,12:57:36,-0.937,-140,432.94,355.81,1008.8,1008.8,25.888,25.538,34.984,410.22,341.9,68.32
PMEL,259.58,15091992,13:55:12,-0.992,-140,432.87,355.89,1009,1009,25.888,25.561,34.993,410.6,342.03,68.56
PMEL,259.62,15091992,14:52:48,-0.998,-139.99,434.21,355.97,1009.2,1009.2,25.869,25.56,34.994,412.25,342.18,70.07
PMEL,259.67,15091992,16:04:48,-1.164,-140,429.96,355.85,1009.7,1009.7,25.977,25.622,34.993,407.62,342.2,65.42
PMEL,259.71,15091992,17:02:24,-1.398,-139.99,429.24,355.89,1010.3,1010.3,26.074,25.744,35.001,407.5,342.37,65.14
PMEL,259.75,15091992,18:00:00,-1.629,-139.95,427.35,355.87,1010.9,1010.9,26.191,25.799,35.009,404.91,342.52,62.39
PMEL,259.79,15091992,18:57:36,-1.864,-139.91,428.05,355.77,1011.2,1011.2,26.307,25.949,35.011,406.14,342.43,63.71
PMEL,259.83,15091992,19:55:12,-2.03,-139.88,429.02,355.98,1011,1011,26.429,26.06,35.01,406.71,342.49,64.22
PMEL,259.87,15091992,20:52:48,-2.034,-139.89,430.39,355.82,1010.3,1010.3,26.486,26.115,35.02,407.64,342.05,65.59
PMEL,259.92,15091992,22:04:48,-2.046,-139.87,432.23,355.66,1009.3,1009.3,26.567,26.181,35.024,408.67,341.51,67.16
PMEL,259.96,15091992,23:02:24,-2.035,-139.89,433.66,355.5,1008.5,1008.5,26.548,26.253,35.027,411.12,341.03,70.09
PMEL,260,16091992,0:00:00,-2.015,-139.92,434.23,355.35,1008,1008,26.588,26.269,35.026,411.05,340.69,70.35
PMEL,260.04,16091992,0:57:36,-1.995,-139.96,431.46,355.19,1007.4,1007.4,26.538,26.257,35.023,408.8,340.34,68.46
PMEL,260.08,16091992,1:55:12,-1.96,-140,432.27,355.03,1007.4,1007.4,26.521,26.219,35.022,409.26,340.21,69.04
PMEL,260.12,16091992,2:52:48,-1.961,-140,430.81,354.87,1007.7,1007.7,26.48,26.212,35.022,408.56,340.17,68.39
PMEL,260.17,16091992,4:04:48,-2.006,-140,430.26,355.14,1008.5,1008.5,26.458,26.2,35.02,408.54,340.72,67.83
PMEL,260.21,16091992,5:02:24,-2.007,-140,429.41,355.16,1009.1,1009.1,26.438,26.178,35.019,407.97,340.96,67.01
PMEL,260.25,16091992,6:00:00,-2.091,-140.01,428.65,355.25,1009.7,1009.7,26.452,26.18,35.012,407.3,341.25,66.05
PMEL,260.29,16091992,6:57:36,-2.317,-140.01,425.94,355.06,1010.3,1010.3,26.489,26.224,35.02,405.05,341.25,63.8
PMEL,260.33,16091992,7:55:12,-2.549,-140.01,422.15,355.31,1010.6,1010.6,26.539,26.265,35.032,401.39,341.57,59.83
PMEL,260.38,16091992,9:07:12,-2.776,-140,418.82,355.19,1010.4,1010.4,26.517,26.273,35.041,398.62,341.38,57.24
PMEL,260.41,16091992,9:50:24,-2.972,-140,418.05,355.32,1010,1010,26.509,26.264,35.036,397.71,341.37,56.34
PMEL,260.46,16091992,11:02:24,-2.998,-140,418.79,355.38,1009.6,1009.6,26.492,26.246,35.043,398.25,341.3,56.95
PMEL,260.5,16091992,12:00:00,-3.003,-140,420.32,355.18,1009.2,1009.2,26.486,26.24,35.045,399.55,340.97,58.58
PMEL,260.54,16091992,12:57:36,-3.121,-140,419.02,355.24,1009.2,1009.2,26.448,26.22,35.029,398.61,341.04,57.57
PMEL,260.58,16091992,13:55:12,-3.357,-140,419.75,355.05,1009.6,1009.6,26.388,26.17,35.021,399.67,341.03,58.64
PMEL,260.63,16091992,15:07:12,-3.584,-140,420.77,355.31,1010.1,1010.1,26.271,26.087,35.016,401.46,341.51,59.94
PMEL,260.67,16091992,16:04:48,-3.822,-140,422.04,355.23,1011,1011,25.965,25.92,34.95,405.42,341.86,63.56
PMEL,260.71,16091992,17:02:24,-3.989,-140,422.17,355.5,1011.8,1011.8,26.049,25.772,34.898,402.23,342.5,59.74
PMEL,260.75,16091992,18:00:00,-3.994,-140,422.45,355.41,1012.6,1012.6,26.086,25.814,34.924,402.88,342.66,60.22
PMEL,260.79,16091992,18:57:36,-3.984,-140,422.43,354.97,1012.9,1012.9,26.121,25.839,34.93,402.8,342.32,60.48
PMEL,260.83,16091992,19:55:12,-4.069,-140,424.06,355.5,1012.5,1012.5,26.347,26,34.955,403.02,342.59,60.43
PMEL,260.87,16091992,20:52:48,-4.309,-140,413.54,355.67,1011.9,1011.9,26.642,26.241,35.014,391.75,342.38,49.37
PMEL,261.25,17091992,6:00:00,-4.961,-140.04,419.21,355.84,1011.2,1011.2,26.825,26.602,35.145,399.39,342.06,57.34
PMEL,261.29,17091992,6:57:36,-5.15,-140.04,417.04,354.99,1011.7,1011.7,26.92,26.677,35.152,397.15,341.36,55.79
PMEL,261.33,17091992,7:55:12,-5.391,-140.03,421.67,355.09,1011.9,1011.9,26.906,26.683,35.158,401.96,341.52,60.44
PMEL,261.37,17091992,8:52:48,-5.645,-140.02,421.07,355.1,1011.8,1011.8,27.011,26.766,35.184,400.93,341.44,59.49
PMEL,261.41,17091992,9:50:24,-5.881,-140,421,355.11,1011.4,1011.4,26.845,26.728,35.166,402.78,341.34,61.44
PMEL,261.46,17091992,11:02:24,-6.002,-140,420.15,355.16,1010.9,1010.9,26.82,26.614,35.099,400.43,341.29,59.14
PMEL,261.5,17091992,12:00:00,-6.005,-140,421.15,355.1,1010.6,1010.6,26.771,26.579,35.093,401.51,341.15,60.36
PMEL,261.54,17091992,12:57:36,-6.157,-140,417.01,355.08,1010.6,1010.6,26.908,26.611,35.115,395.87,341.11,54.76
PMEL,261.58,17091992,13:55:12,-6.408,-140,420.44,355.13,1010.7,1010.7,26.812,26.621,35.135,400.86,341.19,59.67
PMEL,261.62,17091992,14:52:48,-6.665,-140,420.63,355.1,1010.9,1010.9,26.804,26.608,35.118,401.05,341.23,59.81
PMEL,261.67,17091992,16:04:48,-6.921,-140,424.42,355.12,1011.5,1011.5,26.783,26.584,35.113,404.88,341.48,63.4
PMEL,261.71,17091992,17:02:24,-7.002,-140,423.12,355.26,1012,1012,26.81,26.575,35.117,403.28,341.79,61.48
PMEL,261.75,17091992,18:00:00,-7.001,-140,423.25,355.23,1012.6,1012.6,26.83,26.585,35.123,403.48,341.97,61.51
PMEL,261.79,17091992,18:57:36,-7.001,-140,422.47,355.23,1013.1,1013.1,26.863,26.607,35.126,402.74,342.13,60.62
PMEL,261.83,17091992,19:55:12,-7.002,-140,422.95,355.35,1012.8,1012.8,26.89,26.634,35.128,403.06,342.12,60.94
PMEL,261.87,17091992,20:52:48,-7.002,-140,423.99,355.61,1012.2,1012.2,26.971,26.688,35.128,403.32,342.12,61.2
PMEL,261.92,17091992,22:04:48,-7.004,-140,425.78,355.71,1011.3,1011.3,27.022,26.74,35.127,404.63,341.87,62.76
